Location: Lecco
(45.8566°N, 9.3977°E)
Time: 13:13:32
(UTC+02:00)

Explorer 11/Cluster Stage 4 - Pass Details

Date: 18 August 2020
Orbit: 467 x 1258 km, 28.8° (Epoch: 24 September)

Event Time Altitude Azimuth Distance (km) Brightness Sun altitude
Rises 21:19:59 0° 231° (SW) 3,626 10.3 -9.5°
Reaches altitude 10° 21:23:16 10° 214° (SW) 2,821 9.5 -10.0°
Maximum altitude 21:28:02 20° 171° (S) 2,361 8.7 -10.7°
Enters shadow 21:32:08 13° 136° (SE) 2,883 8.8 -11.3°
Drops below altitude 10° 21:33:16 10° 129° (SE) 3,134 - -11.5°
Sets 21:37:10 0° 114° (ESE) 4,166 - -12.1°
